Date,TemperatureHighF,TemperatureAvgF,TemperatureLowF,DewpointHighF,DewpointAvgF,DewpointLowF,HumidityHigh,HumidityAvg,HumidityLow,PressureMaxIn,PressureMinIn,WindSpeedMaxMPH,WindSpeedAvgMPH,GustSpeedMaxMPH,PrecipitationSumIn
2013-3-1,31.0,26.2,23.0,22.0,19.2,17.0,78,75,68,30.12,29.98,12,1,15,0.02
2013-3-2,28.0,23.4,19.0,19.0,16.2,12.0,78,73,68,30.10,29.98,14,2,23,0.00
2013-3-3,38.0,22.5,12.0,24.0,14.2,6.0,80,70,55,30.00,29.92,8,1,15,0.00
2013-3-4,40.0,23.5,11.0,24.0,13.8,6.0,80,67,48,30.08,29.98,2,0,5,0.00
2013-3-5,33.0,24.1,15.0,24.0,17.4,9.0,82,75,68,30.07,29.86,8,1,13,0.00
2013-3-6,41.0,31.6,24.0,32.0,25.3,19.0,84,78,68,30.17,29.89,5,0,10,0.00
2013-3-7,42.0,32.1,24.0,28.0,23.8,15.0,84,72,54,30.35,30.16,7,1,9,0.00
2013-3-8,47.0,30.4,17.0,30.0,20.1,11.0,80,66,49,30.46,30.35,3,0,3,0.00
2013-3-9,48.0,34.7,23.0,32.0,25.5,17.0,83,70,53,30.35,29.98,8,1,9,0.00
2013-3-10,53.0,44.5,36.0,41.0,35.9,29.0,79,72,64,29.98,29.73,6,0,8,0.02
2013-3-11,52.0,47.1,37.0,47.0,41.2,32.0,89,80,68,29.74,29.41,9,2,17,0.39
2013-3-12,37.0,33.5,29.0,32.0,27.3,23.0,85,78,65,29.84,29.58,9,3,18,0.02
2013-3-13,38.0,29.0,23.0,25.0,19.3,13.0,78,68,49,30.14,29.82,15,4,21,0.00
2013-3-14,42.0,30.8,20.0,25.0,18.2,12.0,73,60,46,30.20,30.00,6,1,12,0.00
2013-3-15,38.0,34.4,30.0,31.0,26.6,19.0,77,73,62,30.01,29.83,7,1,10,0.00
2013-3-16,32.0,27.1,23.0,25.0,21.6,19.0,83,79,73,30.00,29.79,6,1,9,0.04
2013-3-17,30.0,23.5,18.0,21.0,14.0,11.0,81,67,50,30.26,30.00,6,1,12,0.02
2013-3-18,33.0,29.4,20.0,29.0,24.4,11.0,86,81,69,30.18,29.52,0,0,2,0.02
2013-3-19,33.0,25.3,21.0,29.0,19.2,16.0,86,77,70,29.85,29.52,14,6,18,0.00
2013-3-20,30.0,22.9,18.0,17.0,13.1,9.0,74,66,56,29.89,29.83,9,3,14,0.00
2013-3-21,32.0,25.0,17.0,23.0,17.3,9.0,79,72,66,29.88,29.79,12,3,14,0.00
2013-3-22,40.0,29.6,24.0,27.0,20.0,16.0,73,67,57,29.99,29.88,8,2,15,0.02
2013-3-23,38.0,31.2,26.0,27.0,22.5,18.0,76,70,63,30.09,29.99,7,0,9,0.02
2013-3-24,38.0,28.6,20.0,28.0,21.5,15.0,83,75,60,30.04,29.70,7,1,10,0.00
2013-3-25,43.0,35.2,30.0,31.0,26.6,23.0,79,71,62,29.91,29.65,12,3,20,0.00
2013-3-26,47.0,36.2,29.0,36.0,27.8,23.0,79,72,60,30.07,29.91,14,1,16,0.06
2013-3-27,51.0,38.9,30.0,34.0,26.7,22.0,75,62,47,30.16,30.07,10,3,18,0.02
2013-3-28,58.0,41.7,31.0,34.0,26.5,21.0,71,56,38,30.23,30.16,9,1,12,0.00
2013-3-29,56.0,40.1,25.0,33.0,23.9,16.0,72,53,38,30.25,30.16,6,0,7,0.00
2013-3-30,57.0,41.1,24.0,33.0,24.8,18.0,79,55,32,30.18,29.87,8,2,12,0.00
2013-3-31,57.0,45.8,37.0,42.0,33.3,-99.9,77,64,48,29.87,29.58,10,2,17,0.00